Location: Dannhausen
(51.8650°N, 10.1026°E)
Time: 02:18:15
(UTC+00:00)

Cosmos 2233 Rocket - Pass Details

Date: 16 August 2020
Orbit: 952 x 992 km, 82.9° (Epoch: 26 September)

Event Time Altitude Azimuth Distance (km) Brightness Sun altitude
Exits shadow 21:13:33 31° 138° (SE) 1,655 4.6 -18.9°
Maximum altitude 21:15:59 45° 90° (E) 1,325 4.4 -19.1°
Drops below altitude 10° 21:21:57 10° 20° (NNE) 2,763 6.9 -19.6°
Sets 21:24:35 0° 14° (NNE) 3,712 7.7 -19.9°
